Location: Oshawa
(43.9000°N, 78.8670°W)
Time: 05:10:31
(UTC-04:00)

Altair - Visible Passes

Search period start: 18 June 2018 00:00
Search period end: 28 June 2018 00:00
Orbit: 1501 x 1683 km, 47.2° (Epoch: 17 June)

Date Brightness Start Highest point End Pass type
(mag) Time Alt. Az. Time Alt. Az. Time Alt. Az.
18 Jun 7.6 01:17:36 31° SSW 01:22:32 57° SE 01:32:13 10° ENE visible
18 Jun 7.7 03:17:22 10° WSW 03:27:12 80° NNW 03:37:24 10° ENE visible
18 Jun 8.7 22:54:30 16° ESE 22:54:30 16° ESE 22:59:37 10° E visible
19 Jun 7.6 00:52:23 29° SSW 00:57:24 54° SE 01:06:58 10° ENE visible
19 Jun 7.7 02:52:10 10° WSW 03:01:59 82° NNW 03:12:09 10° ENE visible
19 Jun 7.9 04:57:30 10° WNW 05:07:31 76° N 05:17:43 10° E visible
19 Jun 8.7 22:28:52 14° SE 22:29:27 14° ESE 22:33:45 10° E visible
20 Jun 7.7 00:26:41 25° SSW 00:32:17 50° SE 00:41:42 10° ENE visible
20 Jun 7.6 02:26:59 10° WSW 02:36:45 84° NNW 02:46:54 10° ENE visible
20 Jun 7.9 04:32:17 10° W 04:42:15 75° N 04:52:27 10° E visible
20 Jun 8.8 22:01:59 11° SE 22:04:28 12° ESE 22:07:34 10° ESE visible
20 Jun 7.7 23:59:35 15° SSW 00:07:11 47° SE 00:16:26 10° ENE visible
21 Jun 7.6 02:01:48 10° WSW 02:11:32 87° NNW 02:21:39 10° ENE visible
21 Jun 7.9 04:07:04 10° W 04:16:59 75° N 04:27:11 10° E visible
21 Jun 8.9 21:38:59 10° ESE 21:39:29 10° ESE 21:40:00 10° ESE visible
21 Jun 7.8 23:33:23 10° SSW 23:42:06 43° SE 23:51:09 10° ENE visible
22 Jun 7.5 01:36:38 10° WSW 01:46:19 89° NNW 01:56:25 10° ENE visible
22 Jun 7.9 03:41:51 10° W 03:51:44 74° N 04:01:55 10° E visible
22 Jun 7.8 23:08:29 10° SSW 23:17:01 40° SE 23:25:52 10° ENE visible
23 Jun 7.5 01:11:29 10° WSW 01:21:08 88° SSE 01:31:11 10° ENE visible
23 Jun 7.8 03:16:39 10° W 03:26:29 74° N 03:36:38 10° E visible
23 Jun 7.9 22:43:37 10° SSW 22:51:57 37° SE 23:00:34 10° ENE visible
24 Jun 7.5 00:46:20 10° WSW 00:55:56 85° SSE 01:05:57 10° ENE visible
24 Jun 7.8 02:51:26 10° W 03:01:14 73° N 03:11:21 10° E visible
24 Jun 7.7 04:56:34 10° WNW 05:06:34 85° SSW 05:16:46 10° ESE visible
24 Jun 8.0 22:18:48 10° SSW 22:26:54 34° SE 22:35:15 10° ENE visible
25 Jun 7.4 00:21:13 10° WSW 00:30:45 82° SSE 00:40:43 10° ENE visible
25 Jun 7.8 02:26:14 10° W 02:35:59 74° N 02:46:05 10° E visible
25 Jun 7.7 04:31:24 10° WNW 04:41:22 88° SSW 04:51:34 10° ESE visible
25 Jun 8.1 21:54:01 10° S 22:01:51 31° SE 22:09:55 10° ENE visible
25 Jun 7.4 23:56:07 10° WSW 00:05:35 78° SSE 00:15:29 10° ENE visible
26 Jun 7.8 02:01:02 10° W 02:10:44 74° N 02:20:49 10° E visible
26 Jun 7.7 04:06:13 10° WNW 04:16:09 89° NNE 04:26:20 10° ESE visible
26 Jun 8.2 21:29:17 10° S 21:36:49 28° SE 21:44:34 10° ENE visible
26 Jun 7.4 23:31:01 10° SW 23:40:25 75° SSE 23:50:15 10° ENE visible
27 Jun 7.7 01:35:49 10° W 01:45:29 74° N 01:55:32 10° E visible
27 Jun 7.7 03:41:01 10° WNW 03:50:55 87° NNE 04:01:07 10° ESE visible
27 Jun 7.4 23:05:56 10° SW 23:15:16 71° SSE 23:25:01 10° ENE visible
